Torna al catalogo

STARLINK-4510

AttivoComunicazioniVLEO
NORAD 53405·PAYLOAD·🇺🇸 United States

Lanciato Aug 10, 2022 da Cape Canaveral Space Force Station

Loading…

Prossimi Passaggi (prossime 24 ore)

TLE

AggiornatoSource: CelesTrak SupGP

Epoca: Sep 15, 2026, 01:31 UTC

1 53405C 22097T   26258.06368056  .00036241  00000+0  10369-2 0  2588
2 53405  53.1589 346.8151 0001153  87.3806 159.0339 15.35380163    16

Traccia STARLINK-4510 in tempo reale con AllMySat

Download on the App Store